Wayne, NE

3:24 AM CDT on May 30, 2017 (GMT -0500)
Wayne Municipal

Weather History for KLCG - February, 2013

Change the Weather History Date:

Wednesday, February 13, 2013

  Actual Average (KOFK) Record (KOFK)
Temperature  
Mean Temperature 38 °F -  
Max Temperature 53 °F 36 °F 70 °F (1934)
Min Temperature 22 °F 15 °F -29 °F (1905)
Degree Days  
Heating Degree Days 28    
Moisture  
Dew Point 26 °F    
Average Humidity 68    
Maximum Humidity 94    
Minimum Humidity 32    
Precipitation  
Precipitation 0.00 in - - ()
Sea Level Pressure  
Sea Level Pressure 29.77 in    
Wind  
Wind Speed 6 mph (WSW)    
Max Wind Speed 20 mph    
Max Gust Speed 28 mph    
Visibility 10 miles    
Events      
Averages and records for this station are not official NWS values.
T = Trace of Precipitation, MM = Missing Value Source: NWS Daily Summary

Daily Weather History Graph

Daily Weather History Graph

Search for Another Location

Airport or City:

Trip Planner

Search our weather history database for the weather conditions in past years. The results will help you decide how hot, cold, wet, or windy it might be!

Date:

Astronomy

Feb. 13, 2013 Rise Set
Actual Time 7:26 AM CST 5:58 PM CST
Civil Twilight 6:57 AM CST 6:27 PM CST
Nautical Twilight 6:24 AM CST 7:00 PM CST
Astronomical Twilight 5:52 AM CST 7:32 PM CST
Moon 8:51 AM CST (2/13) 10:08 PM CST (2/13)
Length of Visible Light 11h 29m
Length of Day
10h 31m
Waxing Crescent, 14% of the Moon is Illuminated
Feb 13
Waxing Crescent
Feb 17
First Quarter
Feb 25
Full
Mar 4
Last Quarter
Mar 11
New

Hourly Weather History & Observations

Time (CST) Temp. Windchill Dew Point Humidity Pressure Visibility Wind Dir Wind Speed Gust Speed Precip Events Conditions
12:15 AM 26.1 °F - 23.9 °F 92% 29.89 in 10.0 mi Calm Calm - N/A   Clear
12:35 AM 26.6 °F - 23.4 °F 88% 29.89 in 10.0 mi Calm Calm - N/A   Clear
12:55 AM 26.2 °F 22.1 °F 23.9 °F 91% 29.88 in 10.0 mi SW 3.5 mph - N/A   Clear
1:15 AM 26.2 °F - 23.7 °F 90% 29.88 in 10.0 mi Calm Calm - N/A   Clear
1:35 AM 25.5 °F - 23.5 °F 92% 29.87 in 10.0 mi Calm Calm - N/A   Clear
1:55 AM 24.3 °F - 22.6 °F 94% 29.86 in 10.0 mi Calm Calm - N/A   Clear
2:15 AM 23.7 °F 17.8 °F 22.3 °F 94% 29.86 in 10.0 mi WSW 4.6 mph - N/A   Clear
2:35 AM 24.1 °F 17.0 °F 22.5 °F 94% 29.86 in 10.0 mi SW 5.8 mph - N/A   Clear
2:55 AM 26.2 °F 20.7 °F 24.4 °F 93% 29.86 in 10.0 mi WSW 4.6 mph - N/A   Scattered Clouds
3:15 AM 25.7 °F 19.0 °F 23.7 °F 92% 29.86 in 10.0 mi WSW 5.8 mph - N/A   Clear
3:35 AM 25.0 °F - 21.7 °F 87% 29.85 in 10.0 mi Calm Calm - N/A   Clear
3:55 AM 23.4 °F 18.9 °F 21.4 °F 92% 29.84 in 10.0 mi SSW 3.5 mph - N/A   Clear
4:15 AM 24.8 °F 20.5 °F 22.8 °F 92% 29.84 in 10.0 mi SSW 3.5 mph - N/A   Clear
4:35 AM 23.9 °F 19.5 °F 21.9 °F 92% 29.84 in 10.0 mi South 3.5 mph - N/A   Clear
4:55 AM 23.9 °F 19.5 °F 21.9 °F 92% 29.83 in 10.0 mi SSW 3.5 mph - N/A   Mostly Cloudy
5:15 AM 23.7 °F - 21.9 °F 93% 29.83 in 10.0 mi Calm Calm - N/A   Scattered Clouds
5:35 AM 24.6 °F - 22.6 °F 92% 29.83 in 10.0 mi Calm Calm - N/A   Scattered Clouds
6:15 AM 23.4 °F 17.4 °F 21.7 °F 94% 29.82 in 10.0 mi SSW 4.6 mph - N/A   Scattered Clouds
6:35 AM 23.0 °F - 21.2 °F 93% 29.82 in 10.0 mi Calm Calm - N/A   Clear
6:55 AM 22.8 °F - 21.2 °F 93% 29.82 in 10.0 mi Calm Calm - N/A   Clear
7:15 AM 23.2 °F 18.7 °F 21.7 °F 94% 29.82 in 10.0 mi SW 3.5 mph - N/A   Clear
7:35 AM 24.1 °F - 22.1 °F 92% 29.82 in 10.0 mi Calm Calm - N/A   Clear
7:55 AM 25.3 °F - 22.8 °F 90% 29.82 in 10.0 mi Calm Calm - N/A   Clear
8:15 AM 27.0 °F - 24.3 °F 90% 29.82 in 10.0 mi Calm Calm - N/A   Clear
8:35 AM 28.0 °F 24.2 °F 25.5 °F 90% 29.81 in 10.0 mi South 3.5 mph - N/A   Clear
8:55 AM 30.2 °F 25.4 °F 26.2 °F 85% 29.81 in 10.0 mi SW 4.6 mph - N/A   Clear
9:15 AM 32.2 °F 27.7 °F 27.3 °F 82% 29.81 in 10.0 mi SW 4.6 mph - N/A   Clear
9:35 AM 34.5 °F 31.6 °F 28.9 °F 80% 29.80 in 10.0 mi SSW 3.5 mph - N/A   Clear
9:55 AM 38.1 °F 32.9 °F 28.0 °F 67% 29.80 in 10.0 mi West 6.9 mph - N/A   Clear
10:15 AM 40.3 °F 34.9 °F 27.9 °F 61% 29.80 in 10.0 mi West 8.1 mph - N/A   Clear
10:35 AM 41.2 °F 37.3 °F 26.6 °F 56% 29.79 in 10.0 mi West 5.8 mph - N/A   Clear
10:55 AM 42.8 °F 40.1 °F 26.8 °F 53% 29.78 in 10.0 mi West 4.6 mph - N/A   Clear
11:15 AM 44.2 °F 39.2 °F 28.0 °F 53% 29.78 in 10.0 mi WSW 9.2 mph - N/A   Clear
11:35 AM 46.4 °F 41.9 °F 28.4 °F 50% 29.78 in 10.0 mi WSW 9.2 mph - N/A   Clear
11:55 AM 47.3 °F - 27.7 °F 47% 29.77 in 10.0 mi West 11.5 mph 16.1 mph N/A   Clear
12:15 PM 48.2 °F - 27.1 °F 44% 29.76 in 10.0 mi WSW 10.4 mph - N/A   Clear
12:35 PM 50.0 °F - 27.9 °F 42% 29.76 in 10.0 mi West 11.5 mph - N/A   Clear
12:55 PM 50.2 °F - 27.0 °F 41% 29.74 in 10.0 mi West 13.8 mph - N/A   Clear
1:15 PM 50.9 °F - 27.5 °F 40% 29.73 in 10.0 mi West 13.8 mph 21.9 mph N/A   Clear
1:35 PM 51.1 °F - 26.8 °F 39% 29.72 in 10.0 mi West 16.1 mph - N/A   Clear
1:55 PM 52.0 °F - 26.8 °F 38% 29.71 in 10.0 mi WSW 17.3 mph 23.0 mph N/A   Scattered Clouds
2:15 PM 52.9 °F - 25.9 °F 35% 29.70 in 10.0 mi West 17.3 mph 24.2 mph N/A   Clear
2:35 PM 53.4 °F - 25.2 °F 33% 29.69 in 10.0 mi WSW 17.3 mph 24.2 mph N/A   Scattered Clouds
2:55 PM 52.9 °F - 24.8 °F 34% 29.69 in 10.0 mi West 16.1 mph 23.0 mph N/A   Scattered Clouds
3:15 PM 52.5 °F - 24.3 °F 33% 29.68 in 10.0 mi West 13.8 mph 20.7 mph N/A   Scattered Clouds
3:35 PM 52.7 °F - 23.9 °F 33% 29.68 in 10.0 mi West 18.4 mph 24.2 mph N/A   Clear
3:55 PM 53.1 °F - 23.7 °F 32% 29.69 in 10.0 mi West 19.6 mph 24.2 mph N/A   Scattered Clouds
4:15 PM 52.3 °F - 24.8 °F 34% 29.69 in 10.0 mi West 15.0 mph 27.6 mph N/A   Overcast
4:35 PM 50.7 °F - 27.5 °F 41% 29.69 in 10.0 mi West 13.8 mph 19.6 mph N/A   Mostly Cloudy
4:55 PM 49.1 °F - 28.6 °F 45% 29.70 in 10.0 mi West 18.4 mph 27.6 mph N/A   Mostly Cloudy
5:15 PM 48.4 °F - 29.8 °F 49% 29.70 in 10.0 mi West 11.5 mph - N/A   Overcast
5:35 PM 47.7 °F - 30.2 °F 51% 29.70 in 10.0 mi West 12.7 mph 18.4 mph N/A   Overcast
5:55 PM 46.8 °F - 30.0 °F 52% 29.70 in 10.0 mi West 10.4 mph - N/A   Overcast
6:15 PM 44.8 °F 40.4 °F 29.8 °F 56% 29.70 in 10.0 mi West 8.1 mph - N/A   Scattered Clouds
6:35 PM 43.3 °F 38.1 °F 30.0 °F 59% 29.71 in 10.0 mi West 9.2 mph - N/A   Clear
6:55 PM 42.6 °F 37.8 °F 30.0 °F 61% 29.71 in 10.0 mi West 8.1 mph - N/A   Scattered Clouds
7:15 PM 42.4 °F 37.0 °F 29.3 °F 60% 29.71 in 10.0 mi WSW 9.2 mph - N/A   Mostly Cloudy
7:35 PM 42.3 °F 35.9 °F 29.3 °F 60% 29.71 in 10.0 mi WSW 11.5 mph - N/A   Scattered Clouds
7:55 PM 42.3 °F 35.9 °F 29.3 °F 60% 29.71 in 10.0 mi West 11.5 mph - N/A   Clear
8:15 PM 40.6 °F 34.8 °F 29.3 °F 64% 29.72 in 10.0 mi West 9.2 mph - N/A   Clear
8:35 PM 41.0 °F 33.9 °F 29.3 °F 63% 29.72 in 10.0 mi West 12.7 mph - N/A   Clear
8:55 PM 40.3 °F 33.4 °F 29.7 °F 66% 29.73 in 10.0 mi WNW 11.5 mph - N/A   Clear
9:15 PM 40.3 °F 33.4 °F 30.0 °F 67% 29.73 in 10.0 mi West 11.5 mph - N/A   Clear
9:35 PM 39.6 °F 33.0 °F 30.0 °F 69% 29.73 in 10.0 mi WNW 10.4 mph - N/A   Clear
9:55 PM 40.5 °F 33.6 °F 30.2 °F 67% 29.74 in 10.0 mi WNW 11.5 mph - N/A   Scattered Clouds
10:15 PM 40.1 °F 32.7 °F 30.2 °F 68% 29.74 in 10.0 mi West 12.7 mph - N/A   Clear
10:35 PM 39.2 °F 31.2 °F 30.6 °F 71% 29.74 in 10.0 mi West 13.8 mph - N/A   Clear
10:55 PM 39.2 °F 31.2 °F 30.7 °F 72% 29.76 in 10.0 mi West 13.8 mph - N/A   Clear
11:15 PM 39.9 °F 31.8 °F 30.6 °F 69% 29.76 in 10.0 mi WNW 15.0 mph 20.7 mph N/A   Clear
11:35 PM 39.2 °F 31.6 °F 30.2 °F 70% 29.76 in 10.0 mi NW 12.7 mph 19.6 mph N/A   Clear
11:55 PM 39.0 °F 31.4 °F 30.2 °F 71% 29.77 in 10.0 mi WNW 12.7 mph 17.3 mph N/A   Clear